Hourly Data Report for October 01, 2017

All times are specified in Local Standard Time (LST). Add 1 hour to adjust for Daylight Saving Time where and when it is observed.

HOPE A
BRITISH COLUMBIA

49°22'06.000" N
121°29'53.000" W
39.00 m
1113542
71187
YHE

Related Data

No related data is available for this station

Download Data

Hourly Data (October 2017)
Hourly Data Report for October 1, 2017
Temp Definition
°C
Dew Point Temp Definition
°C
Rel Hum Definition
%
Wind Dir Definition
10's deg

Wind Spd Definition
km/h
Visibility Definition
km
Stn Press Definition
kPa
Hmdx Definition


Wind Chill Definition


Weather Definition


TIME
00:00 Legend Double Dagger 9.6 9.2 97   0 16.1 101.40     LegendNANA
01:00 Legend Double Dagger 9.6 9.2 97   0 16.1 101.43     LegendNANA
02:00 Legend Double Dagger 9.7 9.3 97 20 4 16.1 101.42     LegendNANA
03:00 Legend Double Dagger 10.0 9.6 97   0 16.1 101.43     LegendNANA
04:00 Legend Double Dagger 10.0 9.4 96   0 4.8 101.46     Rain,Fog
05:00 Legend Double Dagger 9.7 9.3 97 24 4 16.1 101.45     Rain
06:00 Legend Double Dagger 9.6 9.0 96 10 5 16.1 101.48     LegendNANA
07:00 Legend Double Dagger 9.8 9.2 96   0 16.1 101.54     Rain
08:00 Legend Double Dagger 10.5 9.6 94 10 5 16.1 101.55     Rain
09:00 Legend Double Dagger 11.1 9.1 87 12 13 16.1 101.59     Rain
10:00 Legend Double Dagger 11.4 8.7 83 13 8 16.1 101.59     LegendNANA
11:00 Legend Double Dagger 13.1 8.3 72   0 16.1 101.56     LegendNANA
12:00 Legend Double Dagger 13.6 8.3 70 26 8 16.1 101.52     LegendNANA
13:00 Legend Double Dagger 14.5 9.0 69 27 13 16.1 101.48     LegendNANA
14:00 Legend Double Dagger 14.8 8.9 68 28 5 16.1 101.48     LegendNANA
15:00 Legend Double Dagger 12.5 9.5 82 25 5 16.1 101.50     Rain
16:00 Legend Double Dagger 13.2 9.3 77   0 16.1 101.52     LegendNANA
17:00 Legend Double Dagger 12.9 7.8 71 LegendMM 4 16.1 101.53     LegendNANA
18:00 Legend Double Dagger 10.3 7.9 85 LegendMM 4 16.1 101.59     LegendNANA
19:00 Legend Double Dagger 8.0 6.9 93 LegendMM 4 16.1 101.66     LegendNANA
20:00 Legend Double Dagger 10.0 7.8 86 4 5 16.1 101.68     LegendNANA
21:00 Legend Double Dagger 9.7 6.8 82 9 9 16.1 101.68     LegendNANA
22:00 Legend Double Dagger 9.6 7.6 87 7 5 16.1 101.69     LegendNANA
23:00 Legend Double Dagger 9.5 6.7 83 9 11 16.1 101.69     LegendNANA

Notes on Data Quality.

Legend

  • E = Estimated
  • M = Missing
  • NA = Not Available
  • ‡ = Partner data that is not subject to review by the National Climate Archives
Date modified: